Lexington Weather

Lexington, Massachusetts, USA

68°F
9/23/2021 5:37am 
  • Lexington Conditions: Mostly cloudy
  • Temperature: 67.5°F / 19.7°CWarmer 0.6°F than last hour.
  • Dew Point: 66.6°FIncreased 0.6°Fsince last hour.
  • Relative Humidity: 97
  • Wind: Calm, 10-min avg: Calm, gust: 3 mph
  • Barometer: 30.03 in Steady
  • Visibility: 10 miles
  • Rain Today: 0.00 in
  •   

Regional Weather Roundup
for Boston / Norton, MA

        
000
ASUS41 KBOX 191604
RWRBOX

REGIONAL WEATHER ROUNDUP
NATIONAL WEATHER SERVICE BOSTON/NORTON MA
1200 PM EDT SUN SEP 19 2021

NOTE:  "FAIR" INDICATES FEW OR NO CLOUDS BELOW 12,000 FEET WITH NO 
SIGNIFICANT WEATHER AND/OR OBSTRUCTIONS TO VISIBILITY.

MAZALL-191700-
EASTERN MASSACHUSETTS
  
CITY           SKY/WX    TMP DP  RH WIND       PRES   REMARKS
BOSTON         MOSUNNY   71  50  47 NE14      30.16S                  
BEVERLY        SUNNY     69  52  54 NE10      30.16S                  
LAWRENCE       SUNNY     70  53  54 NE13      30.18F                  
BEDFORD        SUNNY     70  53  54 NE8G17    30.16R                  
BLUE HILL      NOT AVBL                                               
NORWOOD        SUNNY     72  51  47 N10G17    30.16R                  
MARSHFIELD     SUNNY     66  54  63 N9G17     30.16R                  
PLYMOUTH       SUNNY     68  53  58 N17G26    30.15R                  
TAUNTON        SUNNY     71  52  50 N8        30.15R                  
NEW BEDFORD    SUNNY     72  54  53 NE9       30.14R                  
$$

MAZALL-191700-
CAPE COD AND THE ISLANDS
  
CITY           SKY/WX    TMP DP  RH WIND       PRES   REMARKS
FALMOUTH       NOT AVBL                                               
HYANNIS        SUNNY     68  55  63 N16G24    30.11R                  
CHATHAM        SUNNY     69  52  54 N10G21    30.12R                  
PROVINCETOWN   SUNNY     67  56  67 N15       30.15R                  
NANTUCKET      SUNNY     72  56  57 N21       30.11R                  
MARTHAS VNYRD  SUNNY     71  54  54 N18G25    30.12S                  
$$
 
MAZALL-191700-
CENTRAL AND WESTERN MASSACHUSETTS
  
CITY           SKY/WX    TMP DP  RH WIND       PRES   REMARKS
WORCESTER      SUNNY     67  50  54 NE7       30.19R                  
FITCHBURG      MOSUNNY   70  48  45 NE6       30.18F                  
ORANGE         SUNNY     71  48  43 NW10      30.19F                  
SPRINGFIELD    MOSUNNY   70  50  49 N7        30.17S                  
WESTFIELD      SUNNY     71  49  45 NE12      30.18S                  
NORTH ADAMS    SUNNY     68  53  58 N10       30.21F                  
PITTSFIELD     SUNNY     68  49  50 NE5       30.20F                  
$$
 
RIZALL-191700-
RHODE ISLAND
  
CITY           SKY/WX    TMP DP  RH WIND       PRES   REMARKS
PROVIDENCE     MOSUNNY   72  52  49 NE13G23   30.16R                  
NEWPORT        SUNNY     70  54  56 N12G23    30.14R                  
BLOCK ISLAND   SUNNY     68  57  68 NE14      30.15R                  
SMITHFIELD     SUNNY     70  54  56 NE12      30.17S                  
WESTERLY       SUNNY     70  54  56 N10       30.14R                  
$$
 
CTZALL-191700-
CONNECTICUT
  
CITY           SKY/WX    TMP DP  RH WIND       PRES   REMARKS
BRADLEY INTL   MOSUNNY   70  50  49 NE12      30.18R                  
HARTFORD       SUNNY     71  50  47 NW9       30.17R                  
BRIDGEPORT     SUNNY     75  48  38 NE14      30.17R                  
DANBURY        SUNNY     73  50  44 N9        30.19R                  
GROTON         SUNNY     73  54  51 N13       30.14R                  
NEW HAVEN      SUNNY     74  54  49 N10       30.16R                  
CHESTER        FAIR      72  54  53 N8        30.16S                  
MERIDEN        SUNNY     71  49  45 N8G17     30.17R                  
WILLIMANTIC    SUNNY     71  52  50 NE10      30.16S                  
OXFORD         SUNNY     69  49  48 NE12      30.19R                  
$$

MEZ002-015-021-024-NHZ003-005-008-011-012-014-VTZ005-008-191700-
NORTHERN NEW ENGLAND
  
CITY           SKY/WX    TMP DP  RH WIND       PRES   REMARKS
PORTLAND ME    SUNNY     67  49  52 N9G22     30.16F                  
BANGOR ME      MOSUNNY   66  47  50 N17G23    30.14S                  
CONCORD NH     SUNNY     69  50  50 NW8       30.17F                  
MANCHESTER NH  MOSUNNY   72  49  44 N6        30.16S                  
NASHUA NH      MOSUNNY   69  55  60 W7        30.18S                  
PORTSMOUTH NH  MOSUNNY   70  46  42 NW13      30.17F                  
JAFFREY NH     SUNNY     68  50  52 CALM      30.20S                  
KEENE NH       SUNNY     70  49  47 N9        30.19S                  
BURLINGTON VT  MOSUNNY   64  50  60 NW9       30.26S                  
MT. WASHINGTON PTSUNNY   43  30  61 N10G20      N/A                   
$$

NYZ052-076-191700-
EASTERN NEW YORK
  
CITY           SKY/WX    TMP DP  RH WIND       PRES   REMARKS
ALBANY         MOSUNNY   64  52  64 N9G16     30.23F                  
NEW YORK CITY  MOSUNNY   75  49  39 NE10G17   30.16S                  
$$
 
ANZALL-191700-
MARINE OBSERVATIONS
  
STATION/POSITION TIME  TEMP    WIND        PRES    VSBY  WAVE
                       AIR SEA DIR/SP/G                  HT/PER
                 (UTC) (F)     (DEG/KT/KT) (MB)    (MI)  (FT/S)
BOSTON BUOY      1540      66  360/ 16/ 19 1021.4R
BUZZARDS BAY     1500           30/ 19/ 20 1021.0R
NANTUCKET SOUND  1540   67 73  350/ 17/ 21 1019.8R
MASS BAY-STELLWA 1504   62      10/ 17/ 21 1020.3R  1 5/8  7/11
ISLE OF SHOALS   1500   62      10/ 16/ 18 1020.9R
S OF BLOCK IS    1526      71                N/A           5/10
$$

......................KEY.........................
  SKY/WX - SKY CONDITION/PRESENT WEATHER
  TMP    - TEMPERATURE IN FAHRENHEIT
  DWPT   - DEWPOINT IN FAHRENHEIT
  RH     - RELATIVE HUMIDITY IN PERCENT
  WIND   - DIRECTION AND SPEED IN MPH
  PRES   - MEAN SEA LEVEL PRESSURE IN INCHES OF HG
  WCI    - WIND CHILL INDEX
  VSB    - VISIBILITY IN MILES
  HX     - HEAT INDEX
  TC     - TEMPERATURE IN CELSIUS
  VRB    - VARIABLE WIND DIRECTION
  N/A    - NOT AVAILABLE
  
      

Other recent Regional Weather Roundups

Thu Sep 23, 5:04am

Thu Sep 23, 4:04am

Thu Sep 23, 3:04am

Thu Sep 23, 2:04am

Thu Sep 23, 1:04am

Thu Sep 23, 12:04am

Wed Sep 22, 11:04pm

Wed Sep 22, 10:04pm

Wed Sep 22, 9:04pm

Wed Sep 22, 8:04pm

Wed Sep 22, 7:04pm

Wed Sep 22, 6:04pm

Wed Sep 22, 5:04pm

Wed Sep 22, 4:04pm

Wed Sep 22, 3:04pm

Wed Sep 22, 2:04pm

Wed Sep 22, 1:04pm

Wed Sep 22, 12:05pm

Wed Sep 22, 11:04am

Wed Sep 22, 10:04am

Wed Sep 22, 9:04am

Wed Sep 22, 8:04am

Wed Sep 22, 7:04am

Wed Sep 22, 6:04am

Wed Sep 22, 5:04am

Wed Sep 22, 4:04am

Wed Sep 22, 3:04am

Wed Sep 22, 2:04am

Wed Sep 22, 1:04am

Wed Sep 22, 12:04am

Tue Sep 21, 11:04pm

Tue Sep 21, 10:04pm

Tue Sep 21, 9:04pm

Tue Sep 21, 8:04pm

Tue Sep 21, 7:04pm

Tue Sep 21, 6:04pm

Tue Sep 21, 5:04pm

Tue Sep 21, 4:04pm

Tue Sep 21, 3:04pm

Tue Sep 21, 2:04pm

Tue Sep 21, 1:04pm

Tue Sep 21, 12:04pm

Tue Sep 21, 11:04am

Tue Sep 21, 10:04am

Tue Sep 21, 9:04am

Tue Sep 21, 8:04am

Tue Sep 21, 7:04am

Tue Sep 21, 6:04am

Tue Sep 21, 5:04am

Tue Sep 21, 4:04am

Tue Sep 21, 3:04am

Tue Sep 21, 2:04am

Tue Sep 21, 1:04am

Tue Sep 21, 12:04am

Mon Sep 20, 11:04pm

Mon Sep 20, 10:04pm

Mon Sep 20, 9:04pm

Mon Sep 20, 8:04pm

Mon Sep 20, 7:04pm

Mon Sep 20, 6:04pm

Mon Sep 20, 5:04pm

Mon Sep 20, 4:04pm

Mon Sep 20, 3:04pm

Mon Sep 20, 2:04pm

Mon Sep 20, 1:04pm

Mon Sep 20, 12:04pm

Mon Sep 20, 11:04am

Mon Sep 20, 10:04am

Mon Sep 20, 9:04am

Mon Sep 20, 7:04am

Mon Sep 20, 6:04am

Mon Sep 20, 5:04am

Mon Sep 20, 4:04am

Mon Sep 20, 3:04am

Mon Sep 20, 2:04am

Mon Sep 20, 1:04am

Mon Sep 20, 12:04am

Sun Sep 19, 11:04pm

Sun Sep 19, 10:04pm

Sun Sep 19, 9:04pm

Sun Sep 19, 8:04pm

Sun Sep 19, 7:04pm

Sun Sep 19, 6:04pm

Sun Sep 19, 5:04pm

Sun Sep 19, 4:04pm

Sun Sep 19, 3:04pm

Sun Sep 19, 2:05pm

Sun Sep 19, 1:04pm

Sun Sep 19, 11:04am

Sun Sep 19, 10:05am

Sun Sep 19, 9:04am

Sun Sep 19, 8:04am

Sun Sep 19, 7:04am

Sun Sep 19, 6:04am

Sun Sep 19, 5:04am

Sun Sep 19, 4:04am

Sun Sep 19, 3:04am

Sun Sep 19, 2:04am

Sun Sep 19, 1:04am

Sun Sep 19, 12:04am

Sat Sep 18, 11:05pm

Sat Sep 18, 10:04pm

Sat Sep 18, 9:04pm

Sat Sep 18, 8:04pm

Sat Sep 18, 7:04pm

Sat Sep 18, 6:04pm

Sat Sep 18, 5:04pm

Sat Sep 18, 4:04pm

Sat Sep 18, 3:04pm

Sat Sep 18, 2:04pm

Sat Sep 18, 1:04pm

Sat Sep 18, 12:04pm

Sat Sep 18, 11:04am

Sat Sep 18, 10:04am

Sat Sep 18, 9:04am

Sat Sep 18, 8:04am

Sat Sep 18, 7:04am

Sat Sep 18, 6:04am

Sat Sep 18, 5:04am

Sat Sep 18, 4:04am

Sat Sep 18, 3:04am

Sat Sep 18, 2:04am

Sat Sep 18, 1:04am

Sat Sep 18, 12:04am

Fri Sep 17, 11:04pm

Fri Sep 17, 10:04pm

Fri Sep 17, 9:04pm

Fri Sep 17, 8:04pm

Fri Sep 17, 7:04pm

Fri Sep 17, 6:04pm

Fri Sep 17, 5:04pm

Fri Sep 17, 4:04pm

Fri Sep 17, 3:04pm

Fri Sep 17, 2:04pm

Fri Sep 17, 1:04pm

Fri Sep 17, 12:05pm

Fri Sep 17, 11:04am

Fri Sep 17, 10:04am

Fri Sep 17, 9:04am

Fri Sep 17, 8:04am

Fri Sep 17, 7:04am

Fri Sep 17, 6:04am

Fri Sep 17, 5:04am

Fri Sep 17, 4:04am

Fri Sep 17, 3:04am

Fri Sep 17, 2:04am

Fri Sep 17, 1:04am

Fri Sep 17, 12:04am

Thu Sep 16, 11:04pm

Thu Sep 16, 10:04pm

Thu Sep 16, 9:04pm

Thu Sep 16, 8:04pm

Thu Sep 16, 7:04pm

Thu Sep 16, 6:04pm

Thu Sep 16, 5:04pm

Thu Sep 16, 4:04pm

Thu Sep 16, 3:04pm

Thu Sep 16, 2:04pm

Thu Sep 16, 1:05pm

Thu Sep 16, 12:04pm

Thu Sep 16, 11:05am

Thu Sep 16, 10:05am

Thu Sep 16, 9:04am

Thu Sep 16, 8:04am

Thu Sep 16, 7:04am

Thu Sep 16, 6:04am

Meta data:

ID: aaa516f9-e099-4b8d-8982-ce9ea494d6a9
Link: https://api.weather.gov/products/aaa516f9-e099-4b8d-8982-ce9ea494d6a9